[[{"header":{"parameterUnit":"m.s-1","parameterCategory":1,"la1":30.2991,"la2":30.254,"lo1":-89.0895,"lo2":-89.0444,"dy":0.0017,"dx":0.0017,"nx":28,"ny":28,"refTime":"2024-10-13T21:00:00:Z","depth":0,"parameterNumber":2,"parameterNumberName":"U-component_of_WINDS"},"data":[0,0,0,0,0,0,0,0,0,0,0,0,0,0,0,0,0,0,0,0,0,0,0,0,0,0,0,0,0,0,0,0,0,0,0,0,0,0,0,0,0,0,0,0,0,0,0,0,0,0,0,0,0,0,0,0,0,0,2.9123,2.9123,0,2.9201,2.9202,2.9203,2.9165,2.9163,2.9161,2.9159,2.9242,2.9246,2.925,0,0,0,0,0,0,0,0,0,0,0,0,0,2.8945,2.8948,2.9122,2.9123,2.9124,2.9201,2.9202,2.9203,2.9165,2.9162,2.916,2.9158,2.9241,2.9245,2.925,0,0,0,0,0,0,0,0,0,0,0,0,0,2.9022,2.8949,2.9122,2.9115,2.9115,2.9201,2.9202,2.9203,2.9165,2.9162,2.9159,2.9157,2.9239,2.9245,2.9251,2.935,0,0,2.927,2.9272,0,0,0,0,0,0,0,0,2.9018,2.9029,2.9115,2.9115,2.9115,2.917,2.917,2.9253,2.9166,2.9146,2.9159,2.9155,2.9221,2.9228,2.925,2.9354,2.9357,2.927,2.9274,2.9277,2.9278,0,0,0,0,0,0,0,2.9013,2.9025,2.9154,2.9116,2.9117,2.9109,2.9117,2.9185,2.92,2.9148,2.9145,2.9155,2.922,2.9244,2.9251,2.9359,2.927,2.9276,2.9279,2.9282,2.9553,2.9556,0,0,0,0,0,0,2.9007,2.9021,2.9151,2.9156,2.9058,2.9115,2.9123,2.9156,2.9199,2.9202,2.9157,2.9153,2.9235,2.9244,2.9254,2.9376,2.9277,2.9282,2.9286,2.9549,2.9554,2.9557,0,0,0,0,0,0,2.9003,2.9019,2.9148,2.9088,2.9104,2.9121,2.9158,2.9159,2.9182,2.9206,2.9209,2.9178,2.9233,2.9245,2.9327,2.9378,2.9285,2.9291,2.9545,2.9551,2.9555,2.9618,0,0,0,0,0,0,2.8998,2.9018,2.9054,2.9089,2.9107,2.9218,2.9161,2.9162,2.9192,2.9187,2.9226,2.923,2.9231,2.9318,2.9333,2.9385,2.9296,2.9541,2.9548,2.9554,2.9611,2.9625,2.9636,0,0,0,0,0,2.8992,2.9068,2.9056,2.9072,2.9153,2.9221,2.9232,2.9231,2.9197,2.9235,2.9251,2.9229,2.937,2.9327,2.9344,2.9398,2.9538,2.9546,2.9553,2.9606,2.9622,2.9636,0,0,0,0,0,0,2.9039,2.9073,2.906,2.9149,2.9183,2.9215,2.9262,2.9247,2.9292,2.9285,2.9283,2.9292,2.9378,2.9396,2.9347,2.9498,2.9449,2.946,2.9483,2.9498,2.951,2.9505,2.9301,0,0,0,0,0,2.906,2.9111,2.9138,2.9215,2.9232,2.9245,2.9274,2.9271,2.9306,2.932,2.9342,2.9378,2.9431,2.9465,2.9515,2.9614,2.9624,2.9659,2.9672,2.9682,2.9692,2.9749,2.9767,2.9583,2.9583,2.9583,0,0,2.9103,2.9128,2.916,2.9225,2.925,2.9306,2.9257,2.9316,2.9359,2.9329,2.9409,2.9426,2.9467,2.9558,2.96,2.9576,2.9745,2.9692,2.9699,2.9705,2.9759,2.9777,2.9792,2.9589,2.9588,2.9587,0,0,2.9211,2.9233,2.9301,2.9329,2.9368,2.9376,2.9393,2.9428,2.9439,2.9518,2.9499,2.9549,2.9639,2.967,2.9697,2.9821,2.9804,2.9837,2.9901,2.9957,2.9972,2.9985,3.0031,3.0048,2.9847,2.9847,2.9847,0,2.926,2.9341,2.9338,2.9401,2.9431,2.9408,2.9478,2.9505,2.9559,2.9582,2.9554,2.9669,2.9694,2.9794,2.9825,2.9847,2.9868,2.9832,2.997,2.9982,2.9994,3.0039,3.0057,2.9851,2.9851,2.985,2.985,0,2.9401,2.9459,2.9509,2.9562,2.9598,2.9664,2.9673,2.9711,2.9705,2.9717,2.98,2.983,2.9887,2.991,2.9905,3.0011,2.9996,2.9969,2.992,3.0016,3.0058,3.0075,2.9857,2.9855,2.9854,2.9853,0,0,2.9539,2.9592,2.9611,2.9637,2.968,2.9725,2.9792,2.9847,2.9881,2.992,2.9978,3.0056,3.0032,3.0064,3.0062,3.0111,3.0211,3.0079,3.008,3.0104,3.0334,3.0355,3.0374,3.0199,3.0203,3.0205,3.0331,0,2.9652,2.9767,2.9768,2.9876,2.9931,2.9911,2.9969,3.0004,3.0018,3.0068,3.0083,3.014,3.0103,3.0122,3.017,3.0188,3.0257,3.0179,3.0256,3.0258,3.0248,3.0396,3.0418,3.0535,3.0347,3.035,3.0352,0,2.9798,2.9843,2.9956,2.9995,3.0018,3.007,3.0123,3.017,3.0211,3.0218,3.0254,3.0246,3.0317,3.0265,3.0364,3.0311,3.0343,3.0357,3.0362,3.037,3.0312,3.041,3.0572,3.0591,3.0377,3.0375,3.0374,0,2.9891,2.9979,3.0059,3.0081,3.0128,3.0166,3.0188,3.0225,3.0259,3.0306,3.0329,3.0383,3.0414,3.0457,3.0465,3.0426,3.0566,3.0514,3.0576,3.0576,3.0607,3.0605,3.0778,3.0624,3.0624,3.0623,3.0623,0,3.0018,3.0088,3.0102,3.0151,3.0231,3.0232,3.0312,3.033,3.0364,3.0419,3.0405,3.0457,3.0463,3.0517,3.0524,3.0607,3.062,3.063,3.0631,3.0632,3.0631,3.0654,3.0647,3.0628,3.0627,3.0626,3.0625,0,3.0135,3.0146,3.0233,3.0271,3.0282,3.034,3.0373,3.0422,3.0435,3.0504,3.0521,3.0542,3.0605,3.0618,3.0692,3.0697,3.0797,3.0789,3.0783,3.0783,3.0846,3.0841,3.104,3.1068,3.0894,3.0896,3.0897,0,3.0215,3.0269,3.0314,3.0349,3.0373,3.043,3.0466,3.047,3.0508,3.056,3.0603,3.0665,3.0715,3.0818,3.0841,3.09,3.0894,3.0961,3.0903,3.0904,3.0899,3.0896,3.0903,3.0972,3.0974,3.0975,3.0976,0,3.0358,3.0362,3.0414,3.0469,3.0512,3.0555,3.0596,3.0626,3.0637,3.0681,3.0746,3.0785,3.0862,3.0925,3.0984,3.1008,3.0996,3.0994,3.1012,3.1015,3.101,3.1016,3.0816,3.099,3.0989,3.0988,3.0987,3.0986,3.0461,3.051,3.055,3.0609,3.0641,3.068,3.0729,3.0749,3.0803,3.0866,3.0866,3.0938,3.098,3.1058,3.1086,3.1144,3.1123,3.1148,3.1155,3.1162,3.1169,3.1,3.1154,3.1154,3.1153,3.1153,3.1153,0,3.0606,3.0631,3.0686,3.0744,3.0792,3.0775,3.0821,3.0862,3.0925,3.0965,3.1015,3.1092,3.1154,3.1183,3.1245,3.1286,3.1282,3.1302,3.13,3.1307,3.1182,3.1162,3.1304,3.1304,3.1304,3.1304,3.1304,3.1304,3.0687,3.0769,3.0779,3.0878,3.0903,3.0973,3.1001,3.1039,3.1072,3.1158,3.1209,3.1227,3.1264,3.1329,3.1386,3.1393,3.1418,3.1442,3.1446,3.133,3.1315,3.13,3.1281,3.1446,3.1446,3.1566,3.1567,3.1568]},{"header":{"parameterUnit":"m.s-1","parameterCategory":1,"la1":30.2991,"la2":30.254,"lo1":-89.0895,"lo2":-89.0444,"dy":0.0017,"dx":0.0017,"nx":28,"ny":28,"refTime":"2024-10-13T21:00:00:Z","depth":0,"parameterNumber":3,"parameterNumberName":"V-component_of_WINDS"},"data":[0,0,0,0,0,0,0,0,0,0,0,0,0,0,0,0,0,0,0,0,0,0,0,0,0,0,0,0,0,0,0,0,0,0,0,0,0,0,0,0,0,0,0,0,0,0,0,0,0,0,0,0,0,0,0,0,0,0,-0.9141,-0.914,0,-0.9105,-0.9104,-0.9104,-0.9086,-0.9086,-0.9086,-0.9086,-0.9047,-0.9046,-0.9045,0,0,0,0,0,0,0,0,0,0,0,0,0,-0.9194,-0.9193,-0.9141,-0.914,-0.914,-0.9105,-0.9104,-0.9104,-0.9086,-0.9086,-0.9086,-0.9086,-0.9047,-0.9046,-0.9045,0,0,0,0,0,0,0,0,0,0,0,0,0,-0.9165,-0.9192,-0.9141,-0.9127,-0.9125,-0.9105,-0.9104,-0.9104,-0.9086,-0.9086,-0.9086,-0.9086,-0.9048,-0.9046,-0.9045,-0.9036,0,0,-0.904,-0.9039,0,0,0,0,0,0,0,0,-0.9167,-0.9164,-0.9129,-0.9128,-0.9126,-0.91,-0.9109,-0.9081,-0.9086,-0.91,-0.9086,-0.9086,-0.9064,-0.9062,-0.9055,-0.9034,-0.9032,-0.904,-0.9039,-0.9038,-0.9038,0,0,0,0,0,0,0,-0.9169,-0.9165,-0.9126,-0.9129,-0.9127,-0.9122,-0.9118,-0.9103,-0.9083,-0.9099,-0.9098,-0.9094,-0.9063,-0.9056,-0.9054,-0.9032,-0.904,-0.9039,-0.9038,-0.9037,-0.9004,-0.9004,0,0,0,0,0,0,-0.9173,-0.9167,-0.9128,-0.9125,-0.9147,-0.9121,-0.9117,-0.9108,-0.9083,-0.9079,-0.9094,-0.9093,-0.9059,-0.9055,-0.9052,-0.9042,-0.9038,-0.9037,-0.9036,-0.9004,-0.9004,-0.9004,0,0,0,0,0,0,-0.9175,-0.917,-0.9129,-0.9146,-0.914,-0.912,-0.9111,-0.9107,-0.91,-0.9079,-0.9075,-0.909,-0.9059,-0.9054,-0.9041,-0.904,-0.9036,-0.9035,-0.9004,-0.9004,-0.9004,-0.9019,0,0,0,0,0,0,-0.9176,-0.9171,-0.9167,-0.9146,-0.9139,-0.9118,-0.9111,-0.9107,-0.9098,-0.9096,-0.9075,-0.9071,-0.9058,-0.9043,-0.9039,-0.9038,-0.9034,-0.9004,-0.9004,-0.9004,-0.9019,-0.902,-0.9021,0,0,0,0,0,-0.9178,-0.9172,-0.9167,-0.9162,-0.9134,-0.9118,-0.9114,-0.91,-0.9098,-0.9094,-0.9081,-0.9072,-0.9041,-0.9042,-0.9037,-0.9035,-0.9004,-0.9004,-0.9004,-0.9018,-0.902,-0.9021,0,0,0,0,0,0,-0.9192,-0.9168,-0.9163,-0.9149,-0.9136,-0.9115,-0.9109,-0.9102,-0.9088,-0.9087,-0.907,-0.9066,-0.9054,-0.9043,-0.9045,-0.9027,-0.9022,-0.9021,-0.9034,-0.9035,-0.9036,-0.9039,-0.9032,0,0,0,0,0,-0.9193,-0.9182,-0.9162,-0.9152,-0.9146,-0.9129,-0.9122,-0.9112,-0.9097,-0.9091,-0.9077,-0.9063,-0.905,-0.9042,-0.9029,-0.9017,-0.9013,-0.9014,-0.9015,-0.9016,-0.9016,-0.9011,-0.9012,-0.9004,-0.9004,-0.9004,0,0,-0.9196,-0.9182,-0.9176,-0.9155,-0.9143,-0.9133,-0.9124,-0.9113,-0.9105,-0.9089,-0.9076,-0.9066,-0.9049,-0.9037,-0.903,-0.9027,-0.9017,-0.9016,-0.9017,-0.9016,-0.9011,-0.9012,-0.9013,-0.9004,-0.9004,-0.9004,0,0,-0.9196,-0.9184,-0.9175,-0.9165,-0.9148,-0.9137,-0.9135,-0.9116,-0.9109,-0.9095,-0.9084,-0.9075,-0.9052,-0.9042,-0.9033,-0.9032,-0.9024,-0.9028,-0.9034,-0.9029,-0.903,-0.903,-0.9031,-0.9032,-0.9028,-0.9028,-0.9028,0,-0.9201,-0.9185,-0.9171,-0.9162,-0.9153,-0.914,-0.9132,-0.9122,-0.9102,-0.9097,-0.9093,-0.9067,-0.9055,-0.9041,-0.9041,-0.9034,-0.9032,-0.903,-0.9031,-0.9031,-0.9031,-0.9032,-0.9033,-0.9028,-0.9028,-0.9028,-0.9028,0,-0.9193,-0.9182,-0.9177,-0.916,-0.9151,-0.9142,-0.9128,-0.912,-0.9112,-0.9102,-0.909,-0.9075,-0.906,-0.9056,-0.9047,-0.9041,-0.904,-0.9034,-0.9029,-0.9033,-0.9034,-0.9034,-0.903,-0.9029,-0.9029,-0.9029,0,0,-0.9199,-0.9176,-0.9175,-0.9168,-0.915,-0.9141,-0.9132,-0.9118,-0.9113,-0.91,-0.9093,-0.9076,-0.9071,-0.9062,-0.9052,-0.9048,-0.905,-0.9043,-0.9042,-0.9046,-0.9045,-0.9051,-0.9051,-0.9045,-0.9045,-0.9045,-0.9047,0,-0.9197,-0.9181,-0.917,-0.9158,-0.9149,-0.9138,-0.913,-0.9118,-0.9109,-0.91,-0.9089,-0.9078,-0.9072,-0.9067,-0.9062,-0.9051,-0.905,-0.905,-0.9038,-0.9038,-0.9044,-0.9051,-0.9056,-0.9059,-0.9047,-0.9047,-0.9047,0,-0.9192,-0.9182,-0.9169,-0.9155,-0.9151,-0.9144,-0.9132,-0.9123,-0.911,-0.9104,-0.9095,-0.9086,-0.9077,-0.9072,-0.906,-0.9061,-0.9055,-0.9049,-0.9049,-0.9048,-0.9043,-0.9051,-0.9059,-0.906,-0.9047,-0.9047,-0.9047,0,-0.9199,-0.9182,-0.9173,-0.9167,-0.9149,-0.9146,-0.9138,-0.9125,-0.9119,-0.9108,-0.9104,-0.9092,-0.9085,-0.9076,-0.9064,-0.9062,-0.9054,-0.9048,-0.9049,-0.905,-0.9048,-0.9048,-0.9056,-0.9043,-0.9043,-0.9043,-0.9043,0,-0.9199,-0.9192,-0.9176,-0.9171,-0.9164,-0.9151,-0.9145,-0.9136,-0.9125,-0.9119,-0.9108,-0.9101,-0.9086,-0.9078,-0.9068,-0.9061,-0.9058,-0.9053,-0.905,-0.9054,-0.9055,-0.9051,-0.905,-0.9043,-0.9043,-0.9043,-0.9043,0,-0.9205,-0.9194,-0.9184,-0.9169,-0.9166,-0.9161,-0.9148,-0.9143,-0.9134,-0.9126,-0.9123,-0.9109,-0.9099,-0.9087,-0.9073,-0.9067,-0.9061,-0.9056,-0.9065,-0.9064,-0.9066,-0.9067,-0.9072,-0.9073,-0.9059,-0.9059,-0.9059,0,-0.9206,-0.9201,-0.9186,-0.9182,-0.9175,-0.9167,-0.9161,-0.9149,-0.9143,-0.913,-0.9126,-0.9116,-0.9108,-0.9093,-0.9081,-0.9071,-0.9067,-0.907,-0.9066,-0.907,-0.9069,-0.907,-0.907,-0.9071,-0.9072,-0.9072,-0.9072,0,-0.9208,-0.9204,-0.9196,-0.9187,-0.918,-0.9172,-0.9163,-0.916,-0.9146,-0.914,-0.9131,-0.9125,-0.9112,-0.9102,-0.9091,-0.9083,-0.9076,-0.9074,-0.9074,-0.9077,-0.9083,-0.9082,-0.9069,-0.9073,-0.9073,-0.9073,-0.9073,-0.9073,-0.9213,-0.9209,-0.9199,-0.9191,-0.9183,-0.9176,-0.9171,-0.9163,-0.9155,-0.9145,-0.9138,-0.913,-0.9119,-0.9104,-0.9097,-0.909,-0.9087,-0.9086,-0.9086,-0.9087,-0.9089,-0.9084,-0.9088,-0.9088,-0.9088,-0.9088,-0.9088,0,-0.9216,-0.921,-0.9202,-0.9192,-0.9186,-0.9181,-0.9171,-0.9167,-0.916,-0.9151,-0.9144,-0.9134,-0.9126,-0.9115,-0.9106,-0.9103,-0.9099,-0.9101,-0.9101,-0.91,-0.9091,-0.9093,-0.9104,-0.9104,-0.9104,-0.9104,-0.9104,-0.9104,-0.9217,-0.9211,-0.9205,-0.9196,-0.919,-0.9182,-0.9178,-0.9171,-0.9165,-0.9155,-0.9149,-0.9142,-0.9133,-0.9123,-0.9116,-0.9113,-0.911,-0.9113,-0.9109,-0.9102,-0.91,-0.9099,-0.91,-0.9113,-0.9113,-0.9119,-0.9119,-0.9119]}]]